Hourly Data Report for July 28, 2012

HALIFAX STANFIELD INT'L A
NOVA SCOTIA

44°52'48.060" N
63°30'00.050" W
145.40 m
8202250
71395
YHZ

Download Data

Hourly Data (July 2012)
Hourly Data Report for July 28, 2012
TIME
LST
Temp Definition
°C
Dew Point Definition
°C
Rel Hum Definition
%
Precip. Amount Definition
mm

Wind Dir Definition
10's deg

Wind Spd Definition
km/h
Visibility Definition
km
Stn Press Definition
kPa
Hmdx Definition


Wind Chill Definition


Weather Definition


00:00 17.4 17.4 100   36 6 3.2 99.49     Fog
01:00 17.0 17.0 100   2 6 0.6 99.53     Fog
02:00 16.7 16.7 100   5 7 16.1 99.58     Clear
03:00 16.2 16.2 100   36 7 6.4 99.63     Fog
04:00 15.5 15.5 100   1 9 0.6 99.66     Fog
05:00 16.2 16.2 100   36 7 0.4 99.72     Fog
06:00 16.6 16.6 100   4 7 0.4 99.77     Fog
07:00 16.7 16.7 100   35 4 0.4 99.85     Fog
08:00 17.6 17.6 100     0 0.8 99.90     Fog
09:00 20.3 18.4 89   6 7 16.1 99.93 27   Mainly Clear
10:00 22.5 17.8 75   4 9 24.1 99.92 28   Mainly Clear
11:00 23.7 17.0 66   5 7 24.1 99.94 29   Mainly Clear
12:00 25.6 17.4 61     0 24.1 99.92 31   Mainly Clear
13:00 26.2 16.1 54   34 7 24.1 99.89 31   Mostly Cloudy
14:00 24.7 18.6 69   18 19 24.1 99.88 31   Mostly Cloudy
15:00 26.2 18.1 61   20 11 24.1 99.87 32   Mainly Clear
16:00 26.0 18.7 64   15 17 24.1 99.85 33   Mostly Cloudy
17:00 24.6 18.4 68   17 13 24.1 99.90 31   Mostly Cloudy
18:00 22.7 17.9 74   16 13 24.1 99.93 29   Mostly Cloudy
19:00 20.3 17.1 82   16 9 24.1 99.98 26   Mainly Clear
20:00 18.5 16.7 89   16 9 24.1 100.01     Mainly Clear
21:00 17.7 16.6 93   16 7 24.1 100.01     Mainly Clear
22:00 17.3 16.5 95   17 9 24.1 100.03     Mainly Clear
23:00 17.3 16.6 96   13 6 24.1 100.00     Mainly Clear

Notes on Data Quality.

Legend

  • E = Estimated
  • M = Missing
  • NA = Not Available*
  • [empty] = Indicates an unobserved value
Date modified: